[[{"header":{"parameterUnit":"m.s-1","parameterCategory":1,"la1":30.2991,"la2":30.254,"lo1":-89.0895,"lo2":-89.0444,"dy":0.0017,"dx":0.0017,"nx":28,"ny":28,"refTime":"2023-11-02T03:00:00:Z","depth":0,"parameterNumber":2,"parameterNumberName":"U-component_of_WINDS"},"data":[0,0,0,0,0,0,0,0,0,0,0,0,0,0,0,0,0,0,0,0,0,0,0,0,0,0,0,0,0,0,0,0,0,0,0,0,0,0,0,0,0,0,0,0,0,0,0,0,0,0,0,0,0,0,0,0,0,0,-4.8831,-4.8832,0,-4.8939,-4.894,-4.8941,-4.886,-4.8856,-4.8853,-4.8849,-4.8962,-4.8969,-4.8975,0,0,0,0,0,0,0,0,0,0,0,0,0,-4.8556,-4.8561,-4.8831,-4.8832,-4.8833,-4.8939,-4.894,-4.8942,-4.886,-4.8856,-4.8852,-4.8848,-4.896,-4.8968,-4.8975,0,0,0,0,0,0,0,0,0,0,0,0,0,-4.8671,-4.8563,-4.883,-4.8805,-4.8804,-4.8938,-4.894,-4.8942,-4.8861,-4.8856,-4.8851,-4.8846,-4.8958,-4.8967,-4.8976,-4.9142,0,0,-4.9005,-4.901,0,0,0,0,0,0,0,0,-4.8665,-4.8681,-4.8808,-4.8807,-4.8806,-4.888,-4.8885,-4.9009,-4.8863,-4.884,-4.8849,-4.8843,-4.894,-4.895,-4.8982,-4.9147,-4.9152,-4.9006,-4.9012,-4.9016,-4.9019,0,0,0,0,0,0,0,-4.8657,-4.8676,-4.8873,-4.881,-4.8809,-4.879,-4.88,-4.8908,-4.8918,-4.8841,-4.8836,-4.8849,-4.8938,-4.8973,-4.8984,-4.9154,-4.9006,-4.9014,-4.902,-4.9024,-4.9462,-4.9468,0,0,0,0,0,0,-4.8651,-4.867,-4.887,-4.8877,-4.8721,-4.8799,-4.8811,-4.8862,-4.8917,-4.892,-4.8854,-4.8845,-4.896,-4.8973,-4.8988,-4.9187,-4.9016,-4.9025,-4.903,-4.9457,-4.9464,-4.947,0,0,0,0,0,0,-4.8645,-4.8669,-4.8866,-4.8772,-4.8795,-4.8809,-4.8868,-4.8867,-4.8902,-4.8926,-4.8928,-4.8888,-4.8956,-4.8975,-4.9105,-4.919,-4.9029,-4.9038,-4.945,-4.9459,-4.9467,-4.9586,0,0,0,0,0,0,-4.8638,-4.8668,-4.873,-4.8774,-4.8801,-4.898,-4.8873,-4.8873,-4.8918,-4.8908,-4.8959,-4.8962,-4.8953,-4.9091,-4.9114,-4.92,-4.9045,-4.9442,-4.9454,-4.9464,-4.9575,-4.9598,-4.9618,0,0,0,0,0,-4.8628,-4.8759,-4.8734,-4.8758,-4.8879,-4.8985,-4.9,-4.8987,-4.8925,-4.8989,-4.9005,-4.896,-4.9177,-4.9105,-4.913,-4.9221,-4.9437,-4.945,-4.9463,-4.9565,-4.9594,-4.9618,0,0,0,0,0,0,-4.8725,-4.8764,-4.8737,-4.8886,-4.8933,-4.8971,-4.905,-4.9017,-4.9083,-4.9071,-4.9052,-4.9065,-4.9202,-4.9224,-4.9143,-4.9385,-4.9297,-4.9316,-4.9366,-4.9393,-4.9414,-4.9407,-4.9053,0,0,0,0,0,-4.8764,-4.8846,-4.8876,-4.9005,-4.903,-4.9037,-4.9082,-4.9068,-4.9116,-4.9136,-4.9161,-4.921,-4.929,-4.9342,-4.9416,-4.9577,-4.9588,-4.9652,-4.9674,-4.9691,-4.9709,-4.9798,-4.9827,-4.9514,-4.9514,-4.9514,0,0,-4.8845,-4.8877,-4.893,-4.9025,-4.906,-4.9147,-4.9054,-4.9149,-4.9214,-4.915,-4.9275,-4.9296,-4.935,-4.9497,-4.9562,-4.9519,-4.9797,-4.9708,-4.9722,-4.973,-4.9815,-4.9844,-4.9871,-4.9523,-4.9522,-4.952,0,0,-4.9038,-4.9069,-4.9181,-4.9218,-4.9271,-4.9275,-4.9302,-4.9346,-4.9357,-4.9482,-4.9437,-4.9514,-4.965,-4.9691,-4.973,-4.994,-4.9902,-4.9964,-5.0078,-5.0166,-5.019,-5.0212,-5.0289,-5.0317,-4.9981,-4.9981,-4.9982,0,-4.9132,-4.926,-4.9242,-4.9342,-4.9386,-4.9332,-4.9447,-4.9483,-4.9559,-4.9592,-4.9542,-4.9713,-4.9745,-4.9902,-4.9954,-4.9986,-5.0018,-4.9959,-5.0188,-5.021,-5.023,-5.0303,-5.0332,-4.9989,-4.9988,-4.9987,-4.9986,0,-4.9374,-4.9464,-4.9548,-4.9623,-4.9676,-4.9783,-4.9782,-4.9839,-4.982,-4.983,-4.9959,-4.9996,-5.0078,-5.0113,-5.0096,-5.0269,-5.0241,-5.019,-5.0101,-5.0267,-5.0336,-5.0364,-4.9999,-4.9997,-4.9994,-4.9993,0,0,-4.9631,-4.9695,-4.9727,-4.9761,-4.9817,-4.9887,-4.9991,-5.0071,-5.0121,-5.0175,-5.0264,-5.0381,-5.0335,-5.0379,-5.0366,-5.0442,-5.0609,-5.0382,-5.0383,-5.0425,-5.0805,-5.0844,-5.0877,-5.0584,-5.0589,-5.0594,-5.0801,0,-4.9828,-5.001,-4.9998,-5.0169,-5.0254,-5.0204,-5.0296,-5.0341,-5.0353,-5.0427,-5.044,-5.0525,-5.0456,-5.0483,-5.0556,-5.0573,-5.0686,-5.0558,-5.0669,-5.0673,-5.0658,-5.0912,-5.0954,-5.1148,-5.0828,-5.0832,-5.0835,0,-5.0082,-5.0145,-5.0326,-5.0371,-5.0406,-5.0488,-5.0561,-5.0632,-5.0683,-5.0686,-5.0737,-5.0711,-5.0819,-5.0727,-5.0876,-5.079,-5.0834,-5.085,-5.0857,-5.0868,-5.0765,-5.0933,-5.1209,-5.1239,-5.0877,-5.0874,-5.0871,0,-5.0254,-5.0384,-5.051,-5.054,-5.0596,-5.0655,-5.0681,-5.0727,-5.0776,-5.084,-5.0872,-5.0948,-5.099,-5.105,-5.1047,-5.098,-5.12,-5.1106,-5.1207,-5.1208,-5.1257,-5.1254,-5.1547,-5.1283,-5.1282,-5.1281,-5.1281,0,-5.0476,-5.0589,-5.0588,-5.0666,-5.0791,-5.0776,-5.0901,-5.0921,-5.0962,-5.1044,-5.1005,-5.1083,-5.1073,-5.1151,-5.1149,-5.1275,-5.1293,-5.13,-5.1299,-5.1305,-5.1305,-5.1335,-5.1322,-5.1289,-5.1287,-5.1286,-5.1285,0,-5.069,-5.0694,-5.0828,-5.0869,-5.0883,-5.0974,-5.101,-5.1084,-5.1093,-5.1196,-5.122,-5.1234,-5.1325,-5.1327,-5.1431,-5.143,-5.1583,-5.1565,-5.1566,-5.1563,-5.1665,-5.1656,-5.1989,-5.2033,-5.1738,-5.1741,-5.1743,0,-5.0833,-5.0919,-5.097,-5.1022,-5.1051,-5.1135,-5.1185,-5.1174,-5.1228,-5.1294,-5.1361,-5.1447,-5.1516,-5.1664,-5.1684,-5.1764,-5.1749,-5.186,-5.1761,-5.1765,-5.1754,-5.1749,-5.1759,-5.188,-5.1884,-5.1886,-5.1888,0,-5.1086,-5.1084,-5.1158,-5.1233,-5.1294,-5.1353,-5.1407,-5.1452,-5.1448,-5.1511,-5.1603,-5.1656,-5.1762,-5.185,-5.1928,-5.1955,-5.1923,-5.1919,-5.1947,-5.1955,-5.1953,-5.1958,-5.1621,-5.1912,-5.191,-5.1908,-5.1907,-5.1906,-5.127,-5.1345,-5.1393,-5.1477,-5.1517,-5.1569,-5.1642,-5.166,-5.1736,-5.1821,-5.181,-5.1913,-5.1964,-5.2065,-5.2099,-5.2181,-5.2143,-5.2182,-5.2193,-5.2203,-5.2215,-5.1939,-5.2195,-5.2194,-5.2193,-5.2193,-5.2192,0,-5.1523,-5.1552,-5.163,-5.1707,-5.1774,-5.1736,-5.1794,-5.1853,-5.1944,-5.1994,-5.2062,-5.2169,-5.2254,-5.2282,-5.2365,-5.2425,-5.2412,-5.2447,-5.2444,-5.2451,-5.2244,-5.2212,-5.2456,-5.2456,-5.2456,-5.2456,-5.2456,-5.2456,-5.1663,-5.1788,-5.1792,-5.1938,-5.1966,-5.2066,-5.2103,-5.2152,-5.2191,-5.2312,-5.2383,-5.24,-5.2441,-5.2527,-5.2604,-5.261,-5.2644,-5.2686,-5.2686,-5.2492,-5.2466,-5.244,-5.2411,-5.2693,-5.2693,-5.2887,-5.2889,-5.289]},{"header":{"parameterUnit":"m.s-1","parameterCategory":1,"la1":30.2991,"la2":30.254,"lo1":-89.0895,"lo2":-89.0444,"dy":0.0017,"dx":0.0017,"nx":28,"ny":28,"refTime":"2023-11-02T03:00:00:Z","depth":0,"parameterNumber":3,"parameterNumberName":"V-component_of_WINDS"},"data":[0,0,0,0,0,0,0,0,0,0,0,0,0,0,0,0,0,0,0,0,0,0,0,0,0,0,0,0,0,0,0,0,0,0,0,0,0,0,0,0,0,0,0,0,0,0,0,0,0,0,0,0,0,0,0,0,0,0,-2.2442,-2.2441,0,-2.236,-2.2359,-2.2358,-2.2295,-2.2295,-2.2294,-2.2293,-2.2208,-2.2207,-2.2205,0,0,0,0,0,0,0,0,0,0,0,0,0,-2.2541,-2.2539,-2.2442,-2.2441,-2.244,-2.2361,-2.2359,-2.2358,-2.2295,-2.2295,-2.2294,-2.2293,-2.2209,-2.2207,-2.2205,0,0,0,0,0,0,0,0,0,0,0,0,0,-2.2482,-2.2539,-2.2442,-2.2399,-2.2395,-2.2361,-2.2359,-2.2358,-2.2295,-2.2295,-2.2294,-2.2293,-2.221,-2.2207,-2.2205,-2.2207,0,0,-2.2197,-2.2196,0,0,0,0,0,0,0,0,-2.2486,-2.2479,-2.2407,-2.2402,-2.2397,-2.2337,-2.2363,-2.2307,-2.2296,-2.2333,-2.2293,-2.2292,-2.2252,-2.2246,-2.2232,-2.2203,-2.2199,-2.2197,-2.2195,-2.2194,-2.2193,0,0,0,0,0,0,0,-2.249,-2.2482,-2.241,-2.2406,-2.24,-2.2383,-2.2374,-2.2352,-2.2298,-2.233,-2.2325,-2.2316,-2.2249,-2.2235,-2.223,-2.2198,-2.2197,-2.2194,-2.2193,-2.2192,-2.2162,-2.2163,0,0,0,0,0,0,-2.2501,-2.2486,-2.2412,-2.2407,-2.244,-2.2382,-2.2371,-2.2357,-2.2299,-2.2289,-2.2317,-2.2314,-2.224,-2.2233,-2.2227,-2.2223,-2.2194,-2.2192,-2.219,-2.2162,-2.2162,-2.2163,0,0,0,0,0,0,-2.2503,-2.2495,-2.2416,-2.2445,-2.2434,-2.2381,-2.2366,-2.2356,-2.2342,-2.2289,-2.2279,-2.2313,-2.2239,-2.223,-2.2211,-2.2219,-2.219,-2.2188,-2.2161,-2.2162,-2.2163,-2.2217,0,0,0,0,0,0,-2.2507,-2.2496,-2.2498,-2.2446,-2.2433,-2.2403,-2.2366,-2.2355,-2.2338,-2.2332,-2.2282,-2.2273,-2.2238,-2.2216,-2.2209,-2.2215,-2.2186,-2.216,-2.2161,-2.2162,-2.2214,-2.222,-2.2225,0,0,0,0,0,-2.251,-2.2517,-2.2498,-2.249,-2.2433,-2.2404,-2.2396,-2.2355,-2.2339,-2.2339,-2.2304,-2.2275,-2.222,-2.2214,-2.2206,-2.2212,-2.2159,-2.2161,-2.2162,-2.2212,-2.2219,-2.2225,0,0,0,0,0,0,-2.2571,-2.2509,-2.2488,-2.2478,-2.2447,-2.2393,-2.2392,-2.2364,-2.2337,-2.2333,-2.2283,-2.2272,-2.2258,-2.2233,-2.2228,-2.2209,-2.2185,-2.2185,-2.2226,-2.2232,-2.2237,-2.2243,-2.2184,0,0,0,0,0,-2.2584,-2.2566,-2.2512,-2.2508,-2.2494,-2.2446,-2.2431,-2.2403,-2.2368,-2.2354,-2.2318,-2.2285,-2.226,-2.2245,-2.2219,-2.221,-2.2197,-2.221,-2.2215,-2.222,-2.222,-2.221,-2.2215,-2.2169,-2.2169,-2.2169,0,0,-2.2609,-2.2573,-2.2564,-2.252,-2.2492,-2.2473,-2.2435,-2.2418,-2.2402,-2.2351,-2.2331,-2.2303,-2.2263,-2.2249,-2.224,-2.2227,-2.223,-2.2222,-2.2226,-2.2224,-2.2213,-2.2217,-2.2221,-2.217,-2.217,-2.2169,0,0,-2.2645,-2.2617,-2.2609,-2.2581,-2.254,-2.2507,-2.2505,-2.2456,-2.2435,-2.2414,-2.2374,-2.2355,-2.2314,-2.2285,-2.2266,-2.2288,-2.2259,-2.2281,-2.2308,-2.2299,-2.2303,-2.2305,-2.2311,-2.2314,-2.2282,-2.2282,-2.2282,0,-2.2681,-2.2652,-2.2608,-2.2592,-2.2572,-2.2525,-2.2516,-2.2491,-2.2443,-2.243,-2.2416,-2.2361,-2.233,-2.2307,-2.2312,-2.2299,-2.2293,-2.2286,-2.2306,-2.2308,-2.231,-2.2315,-2.2317,-2.2285,-2.2284,-2.2284,-2.2284,0,-2.2697,-2.2677,-2.2676,-2.263,-2.261,-2.2598,-2.2551,-2.2536,-2.2508,-2.2477,-2.2454,-2.2416,-2.238,-2.2372,-2.2346,-2.2344,-2.2337,-2.2315,-2.229,-2.2318,-2.2322,-2.2323,-2.2289,-2.2288,-2.2287,-2.2286,0,0,-2.277,-2.2699,-2.2699,-2.2676,-2.2626,-2.2609,-2.2593,-2.2558,-2.2544,-2.2512,-2.2496,-2.2461,-2.2439,-2.2417,-2.2386,-2.2379,-2.2396,-2.2357,-2.2355,-2.2364,-2.2389,-2.2405,-2.2408,-2.2376,-2.2376,-2.2377,-2.2391,0,-2.2797,-2.2766,-2.2726,-2.2708,-2.2688,-2.2641,-2.2627,-2.2593,-2.2563,-2.254,-2.2506,-2.2481,-2.2456,-2.2441,-2.2432,-2.2396,-2.24,-2.2394,-2.2359,-2.2358,-2.2369,-2.241,-2.2427,-2.2443,-2.2393,-2.2393,-2.2393,0,-2.2824,-2.2793,-2.2774,-2.2722,-2.2712,-2.27,-2.2663,-2.2643,-2.2602,-2.2581,-2.2554,-2.2521,-2.2499,-2.2478,-2.2447,-2.2444,-2.2427,-2.2406,-2.2406,-2.24,-2.2377,-2.2403,-2.2448,-2.245,-2.2395,-2.2395,-2.2395,0,-2.2876,-2.283,-2.2812,-2.2794,-2.2734,-2.2726,-2.2701,-2.266,-2.264,-2.2608,-2.2594,-2.2559,-2.254,-2.2513,-2.247,-2.2459,-2.2442,-2.2418,-2.2422,-2.2423,-2.242,-2.2421,-2.2461,-2.2412,-2.2412,-2.2412,-2.2412,0,-2.2909,-2.2899,-2.2834,-2.2823,-2.2809,-2.2761,-2.2748,-2.2718,-2.2682,-2.2662,-2.262,-2.2603,-2.2548,-2.2523,-2.2489,-2.2467,-2.2459,-2.2439,-2.243,-2.2442,-2.2444,-2.243,-2.2427,-2.2413,-2.2412,-2.2412,-2.2412,0,-2.2965,-2.2922,-2.2899,-2.2843,-2.2829,-2.282,-2.2772,-2.2758,-2.2725,-2.27,-2.2692,-2.2639,-2.2608,-2.2562,-2.2517,-2.2494,-2.2476,-2.2463,-2.249,-2.2484,-2.249,-2.249,-2.2521,-2.2521,-2.2474,-2.2475,-2.2475,0,-2.2989,-2.2979,-2.2922,-2.2906,-2.2882,-2.2857,-2.2836,-2.2788,-2.2768,-2.272,-2.2712,-2.2677,-2.2646,-2.2598,-2.2555,-2.2519,-2.2503,-2.2517,-2.2498,-2.2509,-2.2501,-2.2501,-2.2499,-2.2521,-2.2522,-2.2522,-2.2523,0,-2.3034,-2.3012,-2.2984,-2.2948,-2.2925,-2.2894,-2.2862,-2.2851,-2.2795,-2.2775,-2.2742,-2.2718,-2.2671,-2.2636,-2.2594,-2.2566,-2.2535,-2.2529,-2.2528,-2.2539,-2.2555,-2.2544,-2.25,-2.2529,-2.2528,-2.2528,-2.2527,-2.2527,-2.3072,-2.3061,-2.3018,-2.2988,-2.2958,-2.2928,-2.2911,-2.2875,-2.2847,-2.2805,-2.2778,-2.2746,-2.2703,-2.2644,-2.2617,-2.259,-2.2577,-2.2576,-2.2575,-2.2575,-2.2578,-2.256,-2.2582,-2.2582,-2.2582,-2.2582,-2.2582,0,-2.3113,-2.3083,-2.3056,-2.3011,-2.2986,-2.2959,-2.2921,-2.2901,-2.2874,-2.2837,-2.2807,-2.2768,-2.2733,-2.2687,-2.2648,-2.2635,-2.262,-2.2627,-2.2626,-2.262,-2.2593,-2.2597,-2.264,-2.264,-2.264,-2.264,-2.264,-2.264,-2.3132,-2.311,-2.3083,-2.3045,-2.3014,-2.2983,-2.2963,-2.2933,-2.2903,-2.2862,-2.2833,-2.2802,-2.276,-2.2718,-2.2684,-2.2671,-2.2658,-2.2669,-2.2652,-2.2627,-2.2622,-2.2617,-2.262,-2.2667,-2.2667,-2.268,-2.268,-2.268]}]]